Date_and_time,latitude,longitude,wind_speed,RelWindDirFrom,WindDirFrom,air_pressure,air_temperature,relative_humidity,Temp,platform_speed_wrt_ground,air_pressure_at_mean_sea_level,platform_orientation
2018-05-30 23:50,50.6304366666667,-96.9807666666667,15.2,20.5,2,975.53,17.2,101,19.07,0.0,1001.39,165.5
2018-05-31 00:00,50.6304316666667,-96.980755,15.0,20.7,1,975.56,17.0,101,19.07,0.0,1001.42,142.0
2018-05-31 00:10,50.6304383333333,-96.9807633333333,16.7,23.5,3,975.44,17.0,101,19.07,0.0,1001.31,142.0
2018-05-31 00:20,50.6304366666667,-96.980765,15.3,21.6,0,975.49,17.0,101,19.05,0.0,1001.36,142.0
2018-05-31 00:30,50.6304383333333,-96.9807633333333,14.6,19.5,2,975.57,17.1,101,19.04,0.0,1001.43,142.0
2018-05-31 00:40,50.6304383333333,-96.9807666666667,15.6,21.1,5,975.52,17.0,101,19.02,0.0,1001.39,142.0
2018-05-31 00:50,50.6304616666667,-96.98083,14.2,18.4,5,975.64,17.0,101,19.01,0.0,1001.50,142.0
2018-05-31 01:00,50.6304283333333,-96.9807566666667,12.8,17.2,3,975.69,16.9,101,19.01,0.0,1001.56,360.0
2018-05-31 01:10,50.630435,-96.98076,12.2,16.3,359,975.68,16.9,101,19.01,0.0,1001.56,360.0
2018-05-31 01:20,50.63044,-96.98076,12.5,17.4,358,975.72,17.0,101,19.01,0.0,1001.60,360.0
2018-05-31 01:30,50.63044,-96.9807616666667,12.8,18.7,1,975.75,17.0,101,19.02,0.0,1001.63,360.0
2018-05-31 01:40,50.63044,-96.980765,13.0,16.6,2,975.75,17.0,101,19.02,0.0,1001.64,360.0
2018-05-31 01:50,50.6304383333333,-96.9807583333333,12.4,17.4,1,975.89,17.0,100,19.01,0.0,1001.78,360.0
2018-05-31 02:00,50.6304216666667,-96.98076,13.2,19.3,360,975.94,17.0,100,18.99,0.0,1001.84,161.1
2018-05-31 02:10,50.6304283333333,-96.9807816666667,12.7,18.2,1,976.04,17.0,100,18.98,0.0,1001.93,161.1
2018-05-31 02:20,50.630435,-96.980765,12.3,16.0,356,976.19,17.0,100,18.97,0.0,1002.09,161.1
2018-05-31 02:30,50.6304333333333,-96.980745,12.2,17.9,0,976.39,17.1,100,18.97,0.0,1002.29,161.1
2018-05-31 02:40,50.6304366666667,-96.980755,13.6,17.8,2,976.52,17.2,100,18.97,0.0,1002.43,161.1
2018-05-31 02:50,50.6304383333333,-96.9807583333333,13.6,17.7,4,976.59,17.2,100,18.96,0.0,1002.49,161.1
2018-05-31 03:00,50.63044,-96.9807566666667,12.7,18.7,1,976.73,17.2,100,18.97,0.0,1002.65,360.0
2018-05-31 03:10,50.6304416666667,-96.980755,16.0,20.7,9,976.60,17.3,100,18.97,0.0,1002.49,360.0
2018-05-31 03:20,50.6304416666667,-96.9807566666667,16.9,22.7,11,976.69,17.4,100,18.96,0.0,1002.58,360.0
2018-05-31 03:30,50.6304733333333,-96.9807616666667,13.0,20.0,1,976.93,17.3,100,18.95,0.0,1002.84,360.0
2018-05-31 03:40,50.6304466666667,-96.9807266666667,11.6,16.7,357,977.12,17.3,100,18.94,0.0,1003.03,360.0
2018-05-31 03:50,50.6304216666667,-96.9807416666667,13.5,19.2,5,977.00,17.3,100,18.92,0.0,1002.91,360.0
2018-05-31 04:00,50.6304233333333,-96.9807416666667,13.2,16.7,4,976.99,17.3,100,18.91,0.0,1002.90,90.0
2018-05-31 04:10,50.6304316666667,-96.98075,13.1,16.5,4,976.96,17.3,100,18.90,0.0,1002.87,90.0
2018-05-31 04:20,50.630435,-96.98075,14.6,19.2,6,976.81,17.4,100,18.90,0.0,1002.71,90.0
2018-05-31 04:30,50.630435,-96.9807466666667,15.5,20.9,6,976.64,17.4,100,18.90,0.0,1002.53,90.0
2018-05-31 04:40,50.6304366666667,-96.9807466666667,15.9,19.9,7,976.57,17.3,100,18.89,0.0,1002.46,90.0
2018-05-31 04:50,50.630435,-96.9807716666667,14.9,20.0,6,976.51,17.2,100,18.87,0.0,1002.41,90.0
2018-05-31 05:00,50.63045,-96.9807516666667,14.6,18.5,8,976.45,17.2,100,18.86,0.0,1002.34,360.0
2018-05-31 05:10,50.6304483333333,-96.9807566666667,17.4,20.5,12,976.16,17.2,100,18.86,0.0,1002.04,360.0
2018-05-31 05:20,50.6304333333333,-96.9807483333333,16.8,20.2,13,976.14,17.0,100,18.86,0.0,1002.03,360.0
2018-05-31 05:30,50.6304366666667,-96.9807483333333,15.3,19.4,10,976.09,16.8,100,18.85,0.0,1001.99,360.0
2018-05-31 05:40,50.6304383333333,-96.9807516666667,16.1,18.8,10,975.86,16.8,100,18.85,0.0,1001.75,360.0
2018-05-31 05:50,50.6304383333333,-96.9807533333333,14.2,17.9,8,975.90,16.7,100,18.87,0.0,1001.80,360.0
2018-05-31 06:00,50.6304383333333,-96.980755,16.1,21.1,12,975.81,16.7,100,18.87,0.0,1001.71,0.0
2018-05-31 06:10,50.6304383333333,-96.9807566666667,17.5,20.6,15,975.74,16.7,100,18.90,0.0,1001.63,0.0
2018-05-31 06:20,50.6304316666667,-96.9807516666667,15.3,19.4,10,975.91,16.7,100,18.89,0.0,1001.80,0.0
2018-05-31 06:30,50.6304416666667,-96.980765,15.3,20.0,9,975.94,16.6,100,18.86,0.0,1001.84,0.0
2018-05-31 06:40,50.630435,-96.9807616666667,14.5,20.0,10,976.06,16.5,100,18.81,0.0,1001.97,0.0
2018-05-31 06:50,50.63043,-96.9807566666667,11.9,16.3,4,976.31,16.4,100,18.80,0.0,1002.23,0.0
2018-05-31 07:00,50.63043,-96.9807566666667,11.0,15.1,2,976.48,16.4,100,18.78,0.0,1002.41,270.0
2018-05-31 07:10,50.6304316666667,-96.9807583333333,10.5,16.3,358,976.67,16.4,100,18.78,0.0,1002.62,270.0
2018-05-31 07:20,50.6304333333333,-96.9807583333333,10.0,14.3,356,976.71,16.5,100,18.81,0.0,1002.66,270.0
2018-05-31 07:30,50.630435,-96.9807583333333,12.6,17.7,9,976.34,16.5,100,18.81,0.0,1002.28,270.0
2018-05-31 07:40,50.630435,-96.9807583333333,12.7,17.3,4,976.42,16.5,100,18.77,0.0,1002.36,270.0
2018-05-31 07:50,50.630435,-96.9807583333333,9.8,13.7,356,976.63,16.4,100,18.75,0.0,1002.58,270.0
2018-05-31 08:00,50.6304383333333,-96.9807383333333,11.0,15.5,5,976.42,16.6,100,18.74,0.0,1002.36,143.4
2018-05-31 08:10,50.6304266666667,-96.9808033333333,13.8,17.2,14,976.12,16.6,100,18.72,0.0,1002.05,143.4
2018-05-31 08:20,50.6304333333333,-96.980755,17.2,20.3,22,975.65,16.5,100,18.71,0.0,1001.58,143.4
2018-05-31 08:30,50.630435,-96.980755,14.2,18.4,11,976.01,16.4,100,18.71,0.0,1001.96,143.4
2018-05-31 08:40,50.6304266666667,-96.9807683333333,10.3,15.2,359,976.40,16.3,100,18.71,0.0,1002.37,143.4
2018-05-31 08:50,50.6304266666667,-96.9807466666667,10.3,14.7,357,976.64,16.1,100,18.72,0.0,1002.63,143.4
2018-05-31 09:00,50.6304,-96.9807333333333,9.4,13.8,351,976.94,16.1,100,18.75,0.0,1002.93,161.5
2018-05-31 09:10,50.6304283333333,-96.9807566666667,8.2,13.8,344,977.06,16.0,100,18.77,0.0,1003.06,161.5
2018-05-31 09:20,50.6304316666667,-96.98075,7.3,10.9,336,977.09,15.7,100,18.77,0.0,1003.10,161.5
2018-05-31 09:30,50.6304366666667,-96.9807516666667,7.4,10.9,352,977.03,15.6,100,18.77,0.0,1003.04,161.5
2018-05-31 09:40,50.630435,-96.98075,7.9,10.8,354,977.04,15.6,100,18.77,0.0,1003.06,161.5
2018-05-31 09:50,50.630435,-96.9807516666667,7.0,10.7,344,977.13,15.4,100,18.76,0.0,1003.15,161.5
2018-05-31 10:00,50.630435,-96.9807516666667,8.0,11.5,357,977.15,15.5,100,18.75,0.0,1003.17,14.5
2018-05-31 10:10,50.6304333333333,-96.9807533333333,7.8,12.0,357,977.15,15.6,100,18.72,0.0,1003.16,14.5
2018-05-31 10:20,50.6304316666667,-96.9807533333333,6.3,10.1,336,977.33,15.3,100,18.72,0.0,1003.37,14.5
2018-05-31 10:30,50.6304316666667,-96.9807533333333,6.3,8.9,328,977.36,15.0,100,18.68,0.0,1003.42,14.5
2018-05-31 10:40,50.6304316666667,-96.980755,6.5,9.9,328,977.48,14.9,100,18.67,0.0,1003.56,14.5
2018-05-31 10:50,50.6304333333333,-96.980755,6.4,9.5,326,977.71,14.8,100,18.65,0.0,1003.79,14.5
2018-05-31 11:00,50.6304333333333,-96.9807533333333,6.5,10.4,326,977.93,14.8,100,18.63,0.0,1004.02,216.6
2018-05-31 11:10,50.630435,-96.980755,6.9,11.4,322,978.01,14.8,100,18.63,0.0,1004.12,216.6
2018-05-31 11:20,50.6304333333333,-96.980755,7.3,11.1,321,978.25,14.7,100,18.64,0.0,1004.37,216.6
2018-05-31 11:30,50.6304283333333,-96.980775,6.7,10.7,329,978.36,14.8,100,18.64,0.0,1004.48,216.6
2018-05-31 11:40,50.6304366666667,-96.98077,7.3,11.2,330,978.45,14.8,100,18.63,0.0,1004.59,216.6
2018-05-31 11:50,50.6304333333333,-96.9807666666667,7.6,12.0,325,978.49,14.7,100,18.63,0.0,1004.63,216.6
2018-05-31 12:00,50.6304416666667,-96.9807616666667,8.2,12.0,338,978.43,14.6,100,18.62,0.0,1004.56,331.2
2018-05-31 12:10,50.63044,-96.98076,8.9,12.8,345,978.41,14.5,100,18.62,0.0,1004.56,331.2
2018-05-31 12:20,50.63044,-96.9807566666667,8.9,13.6,350,978.35,14.5,100,18.61,0.0,1004.52,331.2
2018-05-31 12:30,50.6304416666667,-96.9807583333333,8.6,13.0,349,978.47,14.6,100,18.60,0.0,1004.64,331.2
2018-05-31 12:40,50.6304416666667,-96.9807566666667,9.4,14.6,354,978.66,14.6,100,18.60,0.0,1004.84,331.2
2018-05-31 12:50,50.6304416666667,-96.980755,9.9,16.5,344,978.85,14.6,100,18.59,0.0,1005.03,331.2
2018-05-31 13:00,50.6304416666667,-96.9807566666667,9.5,14.4,342,979.08,14.5,100,18.59,0.0,1005.27,311.7
2018-05-31 13:10,50.6304416666667,-96.980755,10.1,14.7,346,979.16,14.5,100,18.59,0.0,1005.36,311.7
2018-05-31 13:20,50.63044,-96.980755,8.9,13.6,345,979.34,14.5,100,18.58,0.0,1005.54,311.7
2018-05-31 13:30,50.63044,-96.9807533333333,8.8,13.9,356,979.41,14.6,100,18.58,0.0,1005.60,311.7
2018-05-31 13:40,50.6304383333333,-96.9807533333333,10.0,13.0,356,979.50,14.7,100,18.57,0.0,1005.70,311.7
2018-05-31 13:50,50.630445,-96.9807333333333,14.4,18.0,7,979.49,14.7,100,18.56,0.0,1005.69,311.7
2018-05-31 14:00,50.6304566666667,-96.98075,15.7,18.0,10,979.53,14.7,100,18.55,0.0,1005.74,25.7
2018-05-31 14:10,50.63043,-96.9807383333333,16.9,19.0,19,979.49,14.6,100,18.54,0.0,1005.70,25.7
2018-05-31 14:20,50.6304333333333,-96.9807433333333,16.1,18.4,20,979.56,14.5,100,18.52,0.0,1005.77,25.7
2018-05-31 14:30,50.6304316666667,-96.980745,15.3,18.7,15,979.82,14.4,100,18.52,0.0,1006.04,25.7
2018-05-31 14:40,50.63045,-96.98075,13.6,16.5,14,980.07,14.5,100,18.50,0.0,1006.31,25.7
2018-05-31 14:50,50.63045,-96.980765,14.2,17.4,3,980.06,14.3,100,18.49,0.0,1006.30,25.7
2018-05-31 15:00,50.6304433333333,-96.9807533333333,15.7,19.3,12,980.01,14.3,100,18.48,0.0,1006.26,90.0
2018-05-31 15:10,50.63044,-96.980755,15.0,18.6,10,980.16,14.4,100,18.47,0.0,1006.40,90.0
2018-05-31 15:20,50.6304466666667,-96.9807583333333,14.4,17.0,10,980.34,14.5,100,18.47,0.0,1006.57,90.0
2018-05-31 15:30,50.6304416666667,-96.9807566666667,13.1,16.1,8,980.56,14.5,100,18.47,0.0,1006.80,90.0
2018-05-31 15:40,50.6304416666667,-96.9807566666667,13.0,16.0,4,980.59,14.6,100,18.46,0.0,1006.82,90.0
2018-05-31 15:50,50.63044,-96.980755,14.0,17.3,19,980.47,14.5,100,18.45,0.0,1006.71,90.0
2018-05-31 16:00,50.6304383333333,-96.980755,13.9,16.6,18,980.55,14.6,100,18.42,0.0,1006.78,90.0
2018-05-31 16:10,50.6304516666667,-96.9807533333333,15.3,17.4,21,980.73,14.5,100,18.42,0.0,1006.98,90.0
2018-05-31 16:20,50.630435,-96.98076,16.2,18.7,30,980.74,14.3,100,18.43,0.0,1007.00,90.0
2018-05-31 16:30,50.6304383333333,-96.9807616666667,15.0,17.4,30,980.93,14.2,100,18.45,0.0,1007.20,90.0
2018-05-31 16:40,50.6304466666667,-96.98074,13.5,15.6,24,981.29,14.2,100,18.49,0.0,1007.57,90.0
2018-05-31 16:50,50.63044,-96.98075,13.2,15.3,24,981.56,14.2,100,18.50,0.0,1007.86,90.0
2018-05-31 17:00,50.63044,-96.98075,13.5,15.8,26,981.70,14.1,100,18.53,0.0,1008.01,142.0
2018-05-31 17:10,50.6304416666667,-96.9807533333333,14.2,16.3,32,981.73,14.0,100,18.53,0.0,1008.03,142.0
2018-05-31 17:20,50.6304416666667,-96.9807566666667,15.7,18.2,37,981.69,13.9,100,18.53,0.0,1008.00,142.0
2018-05-31 17:30,50.6304383333333,-96.98076,16.1,17.9,37,981.84,14.0,100,18.54,0.0,1008.14,142.0
2018-05-31 17:40,50.6304383333333,-96.98076,14.7,16.8,38,982.12,14.0,100,18.54,0.0,1008.43,142.0
2018-05-31 17:50,50.6304366666667,-96.98076,15.6,17.8,41,982.05,13.9,100,18.51,0.0,1008.36,142.0
2018-05-31 18:00,50.6304366666667,-96.9807583333333,16.7,19.1,44,982.08,13.9,100,18.48,0.0,1008.40,228.3
2018-05-31 18:10,50.6304366666667,-96.9807583333333,17.1,19.8,44,982.14,13.8,99,18.51,0.0,1008.47,228.3
2018-05-31 18:20,50.6304366666667,-96.9807583333333,14.8,18.1,40,982.43,13.8,99,18.52,0.0,1008.77,228.3
2018-05-31 18:30,50.6304366666667,-96.9807583333333,15.8,18.0,40,982.50,13.7,99,18.52,0.0,1008.85,228.3
2018-05-31 18:40,50.6304333333333,-96.9807616666667,16.0,18.2,42,982.50,13.9,98,18.54,0.0,1008.85,228.3
2018-05-31 18:50,50.6304383333333,-96.9807633333333,15.7,18.2,35,982.60,13.9,97,18.55,0.0,1008.95,228.3
2018-05-31 19:00,50.6304366666667,-96.980765,16.0,18.0,36,982.65,13.8,97,18.56,0.0,1009.00,192.6
2018-05-31 19:10,50.6304383333333,-96.980765,16.4,18.3,36,982.54,13.8,96,18.57,0.0,1008.90,192.6
2018-05-31 19:20,50.6304383333333,-96.9807633333333,14.8,17.7,40,982.73,13.9,95,18.58,0.0,1009.08,192.6
2018-05-31 19:30,50.6304383333333,-96.9807616666667,15.1,18.2,40,982.75,14.1,94,18.61,0.0,1009.10,192.6
2018-05-31 19:40,50.6304383333333,-96.9807633333333,14.5,16.5,29,982.81,13.9,95,18.63,0.0,1009.17,192.6
2018-05-31 19:50,50.6304383333333,-96.9807633333333,14.0,16.3,34,982.89,14.0,96,18.64,0.0,1009.25,192.6
2018-05-31 20:00,50.63044,-96.980765,16.1,19.3,51,982.88,14.3,93,18.65,0.0,1009.23,270.0
2018-05-31 20:10,50.6304383333333,-96.980765,16.8,19.1,51,982.93,14.1,92,18.64,0.0,1009.29,270.0
2018-05-31 20:20,50.6304383333333,-96.9807633333333,16.8,19.0,47,983.07,14.0,92,18.63,0.0,1009.44,270.0
2018-05-31 20:30,50.6304383333333,-96.9807616666667,16.1,17.9,48,983.17,13.9,94,18.64,0.0,1009.54,270.0
2018-05-31 20:40,50.6304416666667,-96.98076,16.1,18.5,47,983.18,13.9,95,18.65,0.0,1009.56,270.0
2018-05-31 20:50,50.630445,-96.9807633333333,15.6,18.2,47,983.25,14.0,95,18.65,0.0,1009.62,270.0
2018-05-31 21:00,50.63042,-96.9807266666667,16.0,18.7,42,983.30,14.0,94,18.67,0.0,1009.68,131.6
2018-05-31 21:10,50.6304316666667,-96.98074,14.7,17.3,40,983.44,13.9,95,18.68,0.0,1009.82,131.6
2018-05-31 21:20,50.630435,-96.9807466666667,14.0,16.5,37,983.49,14.0,94,18.68,0.0,1009.86,131.6
2018-05-31 21:30,50.630435,-96.9807466666667,15.2,16.9,37,983.65,13.9,94,18.69,0.0,1010.03,131.6
2018-05-31 21:40,50.6304366666667,-96.9807483333333,16.2,18.7,36,983.66,13.9,92,18.69,0.0,1010.04,131.6
2018-05-31 21:50,50.6304366666667,-96.98075,17.1,19.4,35,983.62,13.9,91,18.69,0.0,1009.99,131.6
2018-05-31 22:00,50.630435,-96.9807566666667,16.9,20.0,37,983.60,14.0,91,18.66,0.0,1009.97,90.0
2018-05-31 22:10,50.6304466666667,-96.9807733333333,17.4,19.9,41,983.59,14.1,88,18.65,0.0,1009.96,90.0
2018-05-31 22:20,50.6304383333333,-96.9807583333333,15.4,18.1,39,983.89,14.2,89,18.64,0.0,1010.26,90.0
2018-05-31 22:30,50.6304416666667,-96.9807533333333,15.4,17.4,33,984.15,14.3,90,18.64,0.0,1010.53,90.0
2018-05-31 22:40,50.6304383333333,-96.9807516666667,15.6,17.5,31,984.21,14.2,89,18.64,0.0,1010.59,90.0
2018-05-31 22:50,50.63044,-96.9807533333333,16.1,18.3,31,984.22,14.2,88,18.64,0.0,1010.61,90.0
2018-05-31 23:00,50.63044,-96.980755,15.0,17.8,33,984.31,14.4,88,18.63,0.0,1010.69,90.0
2018-05-31 23:10,50.6304383333333,-96.9807566666667,14.7,16.6,32,984.47,14.5,85,18.62,0.0,1010.85,90.0
2018-05-31 23:20,50.6304383333333,-96.98076,14.0,15.8,33,984.63,14.6,86,18.62,0.0,1011.01,90.0
2018-05-31 23:30,50.63044,-96.9807616666667,15.2,17.4,27,984.63,14.5,85,18.61,0.0,1011.02,90.0
2018-05-31 23:40,50.6304416666667,-96.980765,16.3,19.0,28,984.58,14.5,86,18.61,0.0,1010.96,90.0
2018-05-31 23:50,50.6304416666667,-96.980765,15.6,18.2,33,984.77,14.6,87,18.60,0.0,1011.15,90.0
